| time (UTC) | temp C | wind direction | speed KPH | gust KPH | rain 1hr cm | rain 24hr cm | rain mn cm | humidity % | barometer mb |
| 20260906180003 | 26 | 197 | 4.8 | 4.8 | 0.00 | 0.00 | 0.00 | 70 | 1019.1 |
| 20260906175457 | 26 | 165 | 1.6 | 1.6 | 0.00 | 0.00 | 0.00 | 71 | 1019.5 |
| 20260906174956 | 26 | 142 | 1.6 | 3.2 | 0.00 | 0.00 | 0.00 | 72 | 1019.1 |
| 20260906174455 | 26 | 183 | 3.2 | 4.8 | 0.00 | 0.00 | 0.00 | 71 | 1019.1 |
| 20260906173950 | 26 | 188 | 1.6 | 3.2 | 0.00 | 0.00 | 0.00 | 70 | 1019.1 |
| 20260906173445 | 25 | 178 | 1.6 | 1.6 | 0.00 | 0.00 | 0.00 | 73 | 1019.1 |
| 20260906172945 | 26 | 184 | 0.0 | 0.0 | 0.00 | 0.00 | 0.00 | 74 | 1019.5 |
| 20260906172441 | 26 | 192 | 1.6 | 1.6 | 0.00 | 0.00 | 0.00 | 70 | 1019.5 |
| 20260906171937 | 26 | 187 | 0.0 | 1.6 | 0.00 | 0.00 | 0.00 | 72 | 1019.1 |
| 20260906171431 | 25 | 129 | 8.0 | 11.3 | 0.00 | 0.00 | 0.00 | 70 | 1019.1 |
| 20260906170926 | 25 | 172 | 0.0 | 1.6 | 0.00 | 0.00 | 0.00 | 75 | 1019.1 |
| 20260906170417 | 25 | 166 | 0.0 | 1.6 | 0.00 | 0.00 | 0.00 | 77 | 1019.5 |
| 20260906165914 | 25 | 176 | 0.0 | 1.6 | 0.00 | 0.00 | 0.00 | 75 | 1019.5 |
| 20260906165413 | 25 | 186 | 0.0 | 1.6 | 0.00 | 0.00 | 0.00 | 75 | 1019.8 |
| 20260906164908 | 25 | 165 | 0.0 | 1.6 | 0.00 | 0.00 | 0.00 | 75 | 1019.8 |
| 20260906164406 | 25 | 178 | 0.0 | 1.6 | 0.00 | 0.00 | 0.00 | 77 | 1019.8 |
| 20260906163903 | 25 | 127 | 1.6 | 3.2 | 0.00 | 0.00 | 0.00 | 75 | 1020.2 |
| 20260906163359 | 25 | 182 | 1.6 | 1.6 | 0.00 | 0.00 | 0.00 | 76 | 1020.2 |
| 20260906162856 | 25 | 148 | 0.0 | 1.6 | 0.00 | 0.00 | 0.00 | 78 | 1019.8 |
| 20260906162355 | 25 | 174 | 1.6 | 3.2 | 0.00 | 0.00 | 0.00 | 76 | 1020.2 |
| 20260906161851 | 26 | 181 | 1.6 | 1.6 | 0.00 | 0.00 | 0.00 | 76 | 1019.8 |
| 20260906161350 | 25 | 179 | 0.0 | 0.0 | 0.00 | 0.00 | 0.00 | 78 | 1019.8 |
| 20260906160849 | 25 | 188 | 0.0 | 1.6 | 0.00 | 0.00 | 0.00 | 78 | 1020.2 |
| 20260906160342 | 25 | 47 | 3.2 | 3.2 | 0.00 | 0.00 | 0.00 | 79 | 1019.8 |
| 20260906155835 | 25 | 172 | 3.2 | 4.8 | 0.00 | 0.00 | 0.00 | 78 | 1020.2 |
| 20260906155329 | 25 | 175 | 1.6 | 1.6 | 0.00 | 0.00 | 0.00 | 80 | 1020.2 |
| 20260906154826 | 24 | 156 | 1.6 | 1.6 | 0.00 | 0.00 | 0.00 | 81 | 1019.8 |
| 20260906154319 | 25 | 35 | 1.6 | 1.6 | 0.00 | 0.00 | 0.00 | 80 | 1019.8 |
| 20260906153813 | 24 | 158 | 0.0 | 1.6 | 0.00 | 0.00 | 0.00 | 80 | 1019.8 |
| 20260906153312 | 24 | 175 | 0.0 | 1.6 | 0.00 | 0.00 | 0.00 | 82 | 1019.8 |
| 20260906152808 | 24 | 141 | 1.6 | 1.6 | 0.00 | 0.00 | 0.00 | 83 | 1020.2 |
| 20260906152306 | 24 | 215 | 4.8 | 9.7 | 0.00 | 0.00 | 0.00 | 83 | 1020.2 |
| 20260906151802 | 23 | 186 | 1.6 | 1.6 | 0.00 | 0.00 | 0.00 | 83 | 1020.2 |
| 20260906151257 | 23 | 187 | 1.6 | 3.2 | 0.00 | 0.00 | 0.00 | 86 | 1019.8 |
| 20260906150753 | 23 | 182 | 0.0 | 0.0 | 0.00 | 0.00 | 0.00 | 85 | 1019.8 |
| 20260906150248 | 23 | 181 | 1.6 | 3.2 | 0.00 | 0.00 | 0.00 | 86 | 1019.8 |
| 20260906145747 | 23 | 174 | 0.0 | 1.6 | 0.00 | 0.00 | 0.00 | 87 | 1019.8 |
| 20260906145246 | 23 | 187 | 0.0 | 1.6 | 0.00 | 0.00 | 0.00 | 88 | 1019.8 |
| 20260906144742 | 23 | 185 | 1.6 | 1.6 | 0.00 | 0.00 | 0.00 | 87 | 1019.5 |
| 20260906144236 | 23 | 167 | 1.6 | 1.6 | 0.00 | 0.00 | 0.00 | 89 | 1019.8 |
| 20260906143735 | 22 | 180 | 1.6 | 1.6 | 0.00 | 0.00 | 0.00 | 90 | 1019.5 |
| 20260906143233 | 22 | 152 | 3.2 | 4.8 | 0.00 | 0.00 | 0.00 | 90 | 1019.5 |
| 20260906142732 | 22 | 167 | 1.6 | 1.6 | 0.00 | 0.00 | 0.00 | 90 | 1019.5 |
| 20260906142228 | 22 | 153 | 0.0 | 1.6 | 0.00 | 0.00 | 0.00 | 92 | 1019.5 |
| 20260906141726 | 22 | 169 | 0.0 | 1.6 | 0.00 | 0.00 | 0.00 | 93 | 1019.5 |
| 20260906141221 | 22 | 178 | 0.0 | 0.0 | 0.00 | 0.00 | 0.00 | 94 | 1019.5 |
| 20260906140721 | 22 | 154 | 0.0 | 0.0 | 0.00 | 0.00 | 0.00 | 95 | 1019.5 |
| 20260906140216 | 21 | 177 | 0.0 | 0.0 | 0.00 | 0.00 | 0.00 | 97 | 1019.5 |
| 20260906135712 | 21 | 167 | 0.0 | 0.0 | 0.00 | 0.00 | 0.00 | 99 | 1019.5 |
| 20260906135209 | 20 | 186 | 0.0 | 0.0 | 0.00 | 0.00 | 0.00 | 99 | 1019.8 |
| 20260906134704 | 20 | 171 | 0.0 | 1.6 | 0.00 | 0.00 | 0.00 | 99 | 1019.8 |
| 20260906134159 | 20 | 171 | 0.0 | 0.0 | 0.00 | 0.00 | 0.00 | 99 | 1019.5 |
| 20260906133654 | 20 | 178 | 0.0 | 0.0 | 0.00 | 0.00 | 0.00 | 99 | 1019.8 |
| 20260906133150 | 20 | 179 | 0.0 | 0.0 | 0.00 | 0.00 | 0.00 | 99 | 1019.8 |
| 20260906132645 | 20 | 185 | 0.0 | 0.0 | 0.00 | 0.00 | 0.00 | 99 | 1019.5 |
| 20260906132141 | 19 | 176 | 0.0 | 0.0 | 0.00 | 0.00 | 0.00 | 99 | 1019.5 |
| 20260906131636 | 19 | 177 | 0.0 | 0.0 | 0.00 | 0.00 | 0.00 | 99 | 1019.8 |
| 20260906131131 | 18 | 149 | 0.0 | 1.6 | 0.00 | 0.00 | 0.00 | 99 | 1019.5 |
| 20260906130626 | 18 | 171 | 0.0 | 0.0 | 0.00 | 0.00 | 0.00 | 99 | 1019.5 |
| 20260906130121 | 17 | 173 | 0.0 | 0.0 | 0.00 | 0.00 | 0.00 | 99 | 1019.5 |
| 20260906125619 | 18 | 173 | 0.0 | 0.0 | 0.00 | 0.00 | 0.00 | 99 | 1019.5 |
| 20260906125118 | 17 | 174 | 0.0 | 0.0 | 0.00 | 0.00 | 0.00 | 99 | 1019.5 |
| 20260906124614 | 17 | 171 | 0.0 | 0.0 | 0.00 | 0.00 | 0.00 | 99 | 1019.1 |
| 20260906124109 | 17 | 170 | 0.0 | 0.0 | 0.00 | 0.00 | 0.00 | 99 | 1019.1 |
| 20260906123608 | 16 | 185 | 0.0 | 0.0 | 0.00 | 0.00 | 0.00 | 99 | 1019.5 |
| 20260906123103 | 17 | 178 | 0.0 | 0.0 | 0.00 | 0.00 | 0.00 | 99 | 1019.1 |
| 20260906122602 | 17 | 178 | 0.0 | 0.0 | 0.00 | 0.00 | 0.00 | 99 | 1019.1 |
| 20260906122058 | 17 | 174 | 0.0 | 0.0 | 0.00 | 0.00 | 0.00 | 99 | 1019.1 |
| 20260906121554 | 16 | 174 | 0.0 | 0.0 | 0.00 | 0.00 | 0.00 | 99 | 1019.1 |
| 20260906121051 | 16 | 174 | 0.0 | 0.0 | 0.00 | 0.00 | 0.00 | 99 | 1019.5 |
| 20260906120545 | 16 | 174 | 0.0 | 0.0 | 0.00 | 0.00 | 0.00 | 99 | 1019.5 |
| 20260906120043 | 17 | 175 | 0.0 | 0.0 | 0.00 | 0.00 | 0.00 | 99 | 1019.1 |
| 20260906115542 | 16 | 175 | 0.0 | 0.0 | 0.00 | 0.00 | 0.00 | 99 | 1019.1 |
| 20260906115038 | 16 | 181 | 0.0 | 0.0 | 0.00 | 0.00 | 0.00 | 99 | 1018.8 |
| 20260906114532 | 16 | 149 | 0.0 | 0.0 | 0.00 | 0.00 | 0.00 | 99 | 1019.1 |
| 20260906114028 | 16 | 180 | 0.0 | 0.0 | 0.00 | 0.00 | 0.00 | 99 | 1018.8 |
| 20260906113526 | 16 | 190 | 0.0 | 0.0 | 0.00 | 0.00 | 0.00 | 99 | 1018.5 |
| 20260906113022 | 16 | 175 | 0.0 | 0.0 | 0.00 | 0.00 | 0.00 | 99 | 1018.5 |
| 20260906112517 | 16 | 174 | 0.0 | 0.0 | 0.00 | 0.00 | 0.00 | 99 | 1018.5 |
| 20260906112013 | 16 | 173 | 0.0 | 0.0 | 0.00 | 0.00 | 0.00 | 99 | 1018.5 |
| 20260906111512 | 16 | 164 | 0.0 | 0.0 | 0.00 | 0.00 | 0.00 | 99 | 1018.5 |
| 20260906111008 | 16 | 174 | 0.0 | 0.0 | 0.00 | 0.00 | 0.00 | 99 | 1018.8 |
| 20260906110503 | 16 | 173 | 0.0 | 0.0 | 0.00 | 0.00 | 0.00 | 99 | 1018.8 |
| 20260906110001 | 16 | 173 | 0.0 | 0.0 | 0.00 | 0.00 | 0.00 | 99 | 1018.8 |
| 20260906105457 | 16 | 173 | 0.0 | 0.0 | 0.00 | 0.00 | 0.00 | 99 | 1018.5 |
| 20260906104953 | 16 | 174 | 0.0 | 0.0 | 0.00 | 0.00 | 0.00 | 99 | 1018.8 |
| 20260906104451 | 16 | 191 | 0.0 | 0.0 | 0.00 | 0.00 | 0.00 | 99 | 1019.1 |
| 20260906103951 | 16 | 179 | 0.0 | 0.0 | 0.00 | 0.00 | 0.00 | 99 | 1018.8 |
| 20260906103449 | 16 | 172 | 0.0 | 0.0 | 0.00 | 0.00 | 0.00 | 99 | 1018.8 |
| 20260906102945 | 16 | 171 | 0.0 | 0.0 | 0.00 | 0.00 | 0.00 | 99 | 1018.5 |
| 20260906102445 | 16 | 172 | 0.0 | 0.0 | 0.00 | 0.00 | 0.00 | 99 | 1018.5 |
| 20260906101945 | 16 | 171 | 0.0 | 0.0 | 0.00 | 0.00 | 0.00 | 99 | 1018.8 |
| 20260906101440 | 16 | 172 | 0.0 | 0.0 | 0.00 | 0.00 | 0.00 | 99 | 1018.5 |
| 20260906100936 | 16 | 171 | 0.0 | 0.0 | 0.00 | 0.00 | 0.00 | 99 | 1018.5 |
| 20260906100436 | 16 | 172 | 0.0 | 0.0 | 0.00 | 0.00 | 0.00 | 99 | 1018.8 |
| 20260906095930 | 16 | 170 | 0.0 | 0.0 | 0.00 | 0.00 | 0.00 | 99 | 1018.5 |
| 20260906095425 | 16 | 161 | 0.0 | 0.0 | 0.00 | 0.00 | 0.00 | 99 | 1018.0 |
| 20260906094920 | 16 | 168 | 0.0 | 0.0 | 0.00 | 0.00 | 0.00 | 99 | 1018.0 |
| 20260906094414 | 16 | 157 | 0.0 | 1.6 | 0.00 | 0.00 | 0.00 | 99 | 1017.7 |
| 20260906093910 | 16 | 170 | 0.0 | 0.0 | 0.00 | 0.00 | 0.00 | 99 | 1018.0 |
| 20260906093407 | 16 | 168 | 0.0 | 0.0 | 0.00 | 0.00 | 0.00 | 99 | 1018.0 |
| 20260906092901 | 16 | 168 | 0.0 | 0.0 | 0.00 | 0.00 | 0.00 | 99 | 1018.0 |
| 20260906092401 | 16 | 167 | 0.0 | 0.0 | 0.00 | 0.00 | 0.00 | 99 | 1017.7 |
| 20260906091856 | 16 | 169 | 0.0 | 0.0 | 0.00 | 0.00 | 0.00 | 99 | 1018.0 |
| 20260906091352 | 16 | 169 | 0.0 | 0.0 | 0.00 | 0.00 | 0.00 | 99 | 1017.7 |
| 20260906090849 | 16 | 170 | 0.0 | 0.0 | 0.00 | 0.00 | 0.00 | 99 | 1017.7 |
| 20260906090348 | 16 | 170 | 0.0 | 0.0 | 0.00 | 0.00 | 0.00 | 99 | 1017.7 |
| 20260906085842 | 16 | 170 | 0.0 | 0.0 | 0.00 | 0.00 | 0.00 | 99 | 1018.0 |
| 20260906085342 | 16 | 171 | 0.0 | 0.0 | 0.00 | 0.00 | 0.00 | 99 | 1017.7 |
| 20260906084836 | 16 | 172 | 0.0 | 0.0 | 0.00 | 0.00 | 0.00 | 99 | 1018.0 |
| 20260906084336 | 16 | 164 | 0.0 | 0.0 | 0.00 | 0.00 | 0.00 | 99 | 1018.0 |
| 20260906083831 | 16 | 170 | 0.0 | 0.0 | 0.00 | 0.00 | 0.00 | 99 | 1018.0 |
| 20260906083326 | 16 | 170 | 0.0 | 0.0 | 0.00 | 0.00 | 0.00 | 99 | 1018.0 |
| 20260906082820 | 16 | 174 | 0.0 | 0.0 | 0.00 | 0.00 | 0.00 | 99 | 1018.0 |
| 20260906082316 | 16 | 172 | 0.0 | 0.0 | 0.00 | 0.00 | 0.00 | 99 | 1018.0 |
| 20260906081811 | 16 | 171 | 0.0 | 0.0 | 0.00 | 0.00 | 0.00 | 99 | 1018.0 |
| 20260906081307 | 16 | 166 | 0.0 | 0.0 | 0.00 | 0.00 | 0.00 | 99 | 1017.7 |
| 20260906080803 | 16 | 159 | 0.0 | 0.0 | 0.00 | 0.00 | 0.00 | 99 | 1017.7 |
| 20260906080259 | 16 | 157 | 0.0 | 1.6 | 0.00 | 0.00 | 0.00 | 99 | 1018.0 |
| 20260906075758 | 16 | 159 | 0.0 | 0.0 | 0.00 | 0.00 | 0.00 | 99 | 1017.7 |
| 20260906075253 | 16 | 160 | 0.0 | 0.0 | 0.00 | 0.00 | 0.00 | 99 | 1018.0 |
| 20260906074748 | 16 | 145 | 0.0 | 0.0 | 0.00 | 0.00 | 0.00 | 99 | 1017.7 |
| 20260906074248 | 16 | 153 | 0.0 | 1.6 | 0.00 | 0.00 | 0.00 | 99 | 1018.0 |
| 20260906073747 | 16 | 151 | 0.0 | 0.0 | 0.00 | 0.00 | 0.00 | 99 | 1018.0 |
| 20260906073242 | 17 | 176 | 0.0 | 0.0 | 0.00 | 0.00 | 0.00 | 99 | 1018.0 |
| 20260906072738 | 17 | 166 | 0.0 | 0.0 | 0.00 | 0.00 | 0.00 | 99 | 1018.0 |
| 20260906072234 | 17 | 167 | 0.0 | 0.0 | 0.00 | 0.00 | 0.00 | 99 | 1018.0 |
| 20260906071729 | 17 | 166 | 0.0 | 0.0 | 0.00 | 0.00 | 0.00 | 99 | 1018.0 |
| 20260906071229 | 16 | 167 | 0.0 | 0.0 | 0.00 | 0.00 | 0.00 | 99 | 1018.0 |
| 20260906070726 | 17 | 160 | 0.0 | 1.6 | 0.00 | 0.00 | 0.00 | 99 | 1018.0 |
| 20260906070221 | 17 | 164 | 0.0 | 0.0 | 0.00 | 0.00 | 0.00 | 99 | 1018.5 |
| 20260906065721 | 17 | 173 | 0.0 | 0.0 | 0.00 | 0.00 | 0.00 | 99 | 1018.0 |
| 20260906065216 | 17 | 173 | 0.0 | 0.0 | 0.00 | 0.00 | 0.00 | 99 | 1018.0 |
| 20260906064712 | 17 | 173 | 0.0 | 0.0 | 0.00 | 0.00 | 0.00 | 99 | 1018.0 |
| 20260906064207 | 17 | 173 | 0.0 | 0.0 | 0.00 | 0.00 | 0.00 | 99 | 1018.5 |
| 20260906063702 | 17 | 173 | 0.0 | 0.0 | 0.00 | 0.00 | 0.00 | 99 | 1018.5 |
| 20260906063158 | 17 | 172 | 0.0 | 0.0 | 0.00 | 0.00 | 0.00 | 99 | 1018.0 |
| 20260906062653 | 17 | 155 | 0.0 | 0.0 | 0.00 | 0.00 | 0.00 | 99 | 1018.5 |
| 20260906062152 | 17 | 152 | 0.0 | 1.6 | 0.00 | 0.00 | 0.00 | 99 | 1018.5 |
| 20260906061649 | 17 | 169 | 0.0 | 0.0 | 0.00 | 0.00 | 0.00 | 99 | 1018.5 |
| 20260906061149 | 17 | 170 | 0.0 | 0.0 | 0.00 | 0.00 | 0.00 | 99 | 1018.5 |
| 20260906060645 | 17 | 171 | 0.0 | 0.0 | 0.00 | 0.00 | 0.00 | 99 | 1018.8 |
| 20260906060142 | 17 | 172 | 0.0 | 0.0 | 0.00 | 0.00 | 0.00 | 99 | 1018.5 |
| 20260906055637 | 17 | 153 | 0.0 | 0.0 | 0.00 | 0.00 | 0.00 | 99 | 1018.5 |
| 20260906055132 | 17 | 162 | 0.0 | 0.0 | 0.00 | 0.00 | 0.00 | 99 | 1018.0 |
| 20260906054627 | 17 | 166 | 0.0 | 0.0 | 0.00 | 0.00 | 0.00 | 99 | 1018.0 |
| 20260906054123 | 17 | 161 | 0.0 | 0.0 | 0.00 | 0.00 | 0.00 | 99 | 1018.0 |
| 20260906053619 | 17 | 163 | 0.0 | 0.0 | 0.00 | 0.00 | 0.00 | 99 | 1018.5 |
| 20260906053114 | 17 | 165 | 0.0 | 0.0 | 0.00 | 0.00 | 0.00 | 99 | 1018.5 |
| 20260906052610 | 17 | 170 | 0.0 | 0.0 | 0.00 | 0.00 | 0.00 | 99 | 1018.5 |
| 20260906052107 | 17 | 169 | 0.0 | 0.0 | 0.00 | 0.00 | 0.00 | 99 | 1018.5 |
| 20260906051602 | 17 | 169 | 0.0 | 0.0 | 0.00 | 0.00 | 0.00 | 99 | 1018.5 |
| 20260906051057 | 17 | 169 | 0.0 | 0.0 | 0.00 | 0.00 | 0.00 | 99 | 1018.5 |
| 20260906050552 | 17 | 138 | 0.0 | 0.0 | 0.00 | 0.00 | 0.00 | 99 | 1018.5 |
| 20260906050048 | 17 | 172 | 0.0 | 0.0 | 0.00 | 0.00 | 0.00 | 99 | 1018.0 |
| 20260906045545 | 17 | 172 | 0.0 | 0.0 | 0.00 | 0.00 | 0.00 | 99 | 1018.5 |
| 20260906045041 | 17 | 173 | 0.0 | 0.0 | 0.00 | 0.00 | 0.00 | 99 | 1018.5 |
| 20260906044537 | 17 | 154 | 0.0 | 0.0 | 0.00 | 0.00 | 0.00 | 99 | 1018.5 |
| 20260906044032 | 17 | 171 | 0.0 | 0.0 | 0.00 | 0.00 | 0.00 | 99 | 1018.0 |
| 20260906043528 | 17 | 171 | 0.0 | 0.0 | 0.00 | 0.00 | 0.00 | 99 | 1018.5 |
| 20260906043024 | 17 | 170 | 0.0 | 0.0 | 0.00 | 0.00 | 0.00 | 99 | 1018.0 |
| 20260906042522 | 17 | 154 | 0.0 | 0.0 | 0.00 | 0.00 | 0.00 | 99 | 1018.0 |
| 20260906042017 | 17 | 164 | 0.0 | 0.0 | 0.00 | 0.00 | 0.00 | 99 | 1017.7 |
| 20260906041514 | 17 | 164 | 0.0 | 0.0 | 0.00 | 0.00 | 0.00 | 99 | 1018.0 |
| 20260906041013 | 17 | 164 | 0.0 | 0.0 | 0.00 | 0.00 | 0.00 | 99 | 1018.0 |
| 20260906040508 | 17 | 166 | 0.0 | 0.0 | 0.00 | 0.00 | 0.00 | 99 | 1017.7 |
| 20260906040004 | 17 | 164 | 0.0 | 0.0 | 0.00 | 0.00 | 0.00 | 99 | 1018.0 |
| 20260906035459 | 17 | 182 | 0.0 | 0.0 | 0.00 | 0.00 | 0.00 | 99 | 1017.7 |
| 20260906034955 | 17 | 182 | 0.0 | 0.0 | 0.00 | 0.00 | 0.00 | 99 | 1017.7 |
| 20260906034454 | 17 | 183 | 0.0 | 0.0 | 0.00 | 0.00 | 0.00 | 99 | 1018.0 |
| 20260906033949 | 17 | 184 | 0.0 | 0.0 | 0.00 | 0.00 | 0.00 | 99 | 1018.0 |
| 20260906033444 | 17 | 181 | 0.0 | 0.0 | 0.00 | 0.00 | 0.00 | 99 | 1017.7 |
| 20260906032940 | 17 | 172 | 0.0 | 0.0 | 0.00 | 0.00 | 0.00 | 99 | 1017.7 |
| 20260906032437 | 17 | 172 | 0.0 | 0.0 | 0.00 | 0.00 | 0.00 | 99 | 1017.7 |
| 20260906031931 | 17 | 171 | 0.0 | 0.0 | 0.00 | 0.00 | 0.00 | 99 | 1017.7 |
| 20260906031426 | 17 | 171 | 0.0 | 0.0 | 0.00 | 0.00 | 0.00 | 99 | 1017.7 |
| 20260906030921 | 17 | 172 | 0.0 | 0.0 | 0.00 | 0.00 | 0.00 | 99 | 1017.7 |
| 20260906030416 | 17 | 171 | 0.0 | 0.0 | 0.00 | 0.00 | 0.00 | 99 | 1017.4 |
| 20260906025910 | 17 | 170 | 0.0 | 0.0 | 0.00 | 0.00 | 0.00 | 99 | 1017.7 |
| 20260906025405 | 18 | 160 | 0.0 | 0.0 | 0.00 | 0.00 | 0.00 | 99 | 1017.4 |
| 20260906024904 | 18 | 167 | 0.0 | 0.0 | 0.00 | 0.00 | 0.00 | 99 | 1017.4 |
| 20260906024403 | 18 | 171 | 0.0 | 0.0 | 0.00 | 0.00 | 0.00 | 99 | 1017.7 |
| 20260906023859 | 18 | 170 | 0.0 | 0.0 | 0.00 | 0.00 | 0.00 | 99 | 1017.4 |
| 20260906023355 | 18 | 170 | 0.0 | 0.0 | 0.00 | 0.00 | 0.00 | 99 | 1017.4 |
| 20260906022854 | 18 | 170 | 0.0 | 0.0 | 0.00 | 0.00 | 0.00 | 99 | 1017.4 |
| 20260906022349 | 18 | 164 | 0.0 | 0.0 | 0.00 | 0.00 | 0.00 | 99 | 1017.0 |
| 20260906021845 | 18 | 167 | 0.0 | 0.0 | 0.00 | 0.00 | 0.00 | 99 | 1017.0 |
| 20260906021344 | 19 | 165 | 0.0 | 0.0 | 0.00 | 0.00 | 0.00 | 99 | 1016.7 |
| 20260906020839 | 19 | 165 | 0.0 | 0.0 | 0.00 | 0.00 | 0.00 | 99 | 1016.7 |
| 20260906020339 | 19 | 153 | 0.0 | 0.0 | 0.00 | 0.00 | 0.00 | 99 | 1016.3 |
| 20260906015834 | 19 | 162 | 0.0 | 0.0 | 0.00 | 0.00 | 0.00 | 99 | 1016.3 |
| 20260906015333 | 19 | 169 | 0.0 | 0.0 | 0.00 | 0.00 | 0.00 | 99 | 1016.3 |
| 20260906014833 | 20 | 169 | 0.0 | 0.0 | 0.00 | 0.00 | 0.00 | 99 | 1016.3 |
| 20260906014327 | 20 | 167 | 0.0 | 0.0 | 0.00 | 0.00 | 0.00 | 99 | 1016.3 |
| 20260906013824 | 20 | 167 | 0.0 | 0.0 | 0.00 | 0.00 | 0.00 | 99 | 1016.0 |
| 20260906013319 | 20 | 172 | 0.0 | 0.0 | 0.00 | 0.00 | 0.00 | 99 | 1015.7 |
| 20260906012815 | 20 | 172 | 0.0 | 0.0 | 0.00 | 0.00 | 0.00 | 99 | 1015.7 |
| 20260906012315 | 20 | 174 | 0.0 | 0.0 | 0.00 | 0.00 | 0.00 | 99 | 1015.7 |
| 20260906011809 | 20 | 174 | 0.0 | 0.0 | 0.00 | 0.00 | 0.00 | 99 | 1015.7 |
| 20260906011304 | 20 | 172 | 0.0 | 0.0 | 0.00 | 0.00 | 0.00 | 99 | 1015.3 |
| 20260906010800 | 21 | 155 | 0.0 | 0.0 | 0.00 | 0.00 | 0.00 | 99 | 1015.7 |
| 20260906010256 | 21 | 148 | 0.0 | 1.6 | 0.00 | 0.00 | 0.00 | 99 | 1015.7 |
| 20260906005751 | 21 | 168 | 0.0 | 0.0 | 0.00 | 0.00 | 0.00 | 98 | 1015.7 |
| 20260906005250 | 21 | 169 | 0.0 | 0.0 | 0.00 | 0.00 | 0.00 | 98 | 1015.7 |
| 20260906004749 | 21 | 157 | 0.0 | 0.0 | 0.00 | 0.00 | 0.00 | 98 | 1015.7 |
| 20260906004244 | 21 | 181 | 0.0 | 0.0 | 0.00 | 0.00 | 0.00 | 97 | 1015.7 |
| 20260906003739 | 22 | 181 | 0.0 | 0.0 | 0.00 | 0.00 | 0.00 | 97 | 1015.7 |
| 20260906003234 | 22 | 181 | 0.0 | 0.0 | 0.00 | 0.00 | 0.00 | 96 | 1016.0 |
| 20260906002735 | 22 | 181 | 0.0 | 0.0 | 0.00 | 0.00 | 0.00 | 95 | 1016.0 |
| 20260906002234 | 22 | 181 | 0.0 | 0.0 | 0.00 | 0.00 | 0.00 | 94 | 1015.7 |
| 20260906001730 | 23 | 179 | 0.0 | 0.0 | 0.00 | 0.00 | 0.00 | 94 | 1015.7 |
| 20260906001225 | 23 | 182 | 0.0 | 0.0 | 0.00 | 0.00 | 0.00 | 93 | 1015.7 |
| 20260906000721 | 23 | 169 | 0.0 | 0.0 | 0.00 | 0.00 | 0.00 | 92 | 1015.7 |
| 20260906000215 | 23 | 177 | 0.0 | 0.0 | 0.00 | 0.00 | 0.00 | 92 | 1015.7 |
| 20260905235715 | 23 | 168 | 0.0 | 0.0 | 0.00 | 0.00 | 0.00 | 91 | 1015.7 |
| 20260905235210 | 23 | 182 | 0.0 | 0.0 | 0.00 | 0.00 | 0.00 | 90 | 1015.7 |
| 20260905234706 | 24 | 144 | 0.0 | 0.0 | 0.00 | 0.00 | 0.00 | 89 | 1015.7 |
| 20260905234201 | 25 | 141 | 0.0 | 0.0 | 0.00 | 0.00 | 0.00 | 88 | 1015.7 |
| 20260905233656 | 25 | 129 | 1.6 | 3.2 | 0.00 | 0.00 | 0.00 | 87 | 1016.0 |
| 20260905233155 | 25 | 165 | 0.0 | 0.0 | 0.00 | 0.00 | 0.00 | 87 | 1016.0 |
| 20260905232650 | 25 | 177 | 0.0 | 0.0 | 0.00 | 0.00 | 0.00 | 87 | 1015.7 |
| 20260905232146 | 25 | 180 | 0.0 | 0.0 | 0.00 | 0.00 | 0.00 | 87 | 1015.7 |
| 20260905231641 | 25 | 195 | 0.0 | 1.6 | 0.00 | 0.00 | 0.00 | 84 | 1015.7 |
| 20260905231137 | 25 | 164 | 0.0 | 0.0 | 0.00 | 0.00 | 0.00 | 85 | 1015.7 |
| 20260905230633 | 25 | 173 | 0.0 | 0.0 | 0.00 | 0.00 | 0.00 | 84 | 1015.7 |
| 20260905230131 | 26 | 172 | 0.0 | 0.0 | 0.00 | 0.00 | 0.00 | 84 | 1015.7 |
| 20260905225630 | 26 | 185 | 0.0 | 0.0 | 0.00 | 0.00 | 0.00 | 82 | 1015.7 |
| 20260905225126 | 26 | 171 | 0.0 | 1.6 | 0.00 | 0.00 | 0.00 | 81 | 1016.0 |
| 20260905224625 | 26 | 180 | 0.0 | 0.0 | 0.00 | 0.00 | 0.00 | 82 | 1015.7 |
| 20260905224125 | 26 | 178 | 0.0 | 0.0 | 0.00 | 0.00 | 0.00 | 81 | 1016.0 |
| 20260905223622 | 26 | 169 | 1.6 | 1.6 | 0.00 | 0.00 | 0.00 | 80 | 1015.7 |
| 20260905223118 | 27 | 175 | 1.6 | 1.6 | 0.00 | 0.00 | 0.00 | 80 | 1015.7 |
| 20260905222619 | 27 | 165 | 1.6 | 3.2 | 0.00 | 0.00 | 0.00 | 79 | 1016.0 |
| 20260905222114 | 27 | 164 | 0.0 | 1.6 | 0.00 | 0.00 | 0.00 | 79 | 1016.0 |
| 20260905221609 | 26 | 178 | 0.0 | 1.6 | 0.00 | 0.00 | 0.00 | 80 | 1016.0 |
| 20260905221106 | 27 | 191 | 0.0 | 1.6 | 0.00 | 0.00 | 0.00 | 78 | 1016.0 |
| 20260905220601 | 26 | 198 | 0.0 | 0.0 | 0.00 | 0.00 | 0.00 | 82 | 1016.0 |
| 20260905220057 | 25 | 165 | 0.0 | 0.0 | 0.00 | 0.00 | 0.00 | 84 | 1016.0 |
| 20260905215556 | 26 | 172 | 0.0 | 1.6 | 0.00 | 0.00 | 0.00 | 82 | 1016.3 |
| 20260905215052 | 26 | 186 | 0.0 | 1.6 | 0.00 | 0.00 | 0.00 | 81 | 1016.3 |
| 20260905214548 | 27 | 166 | 0.0 | 0.0 | 0.00 | 0.00 | 0.00 | 81 | 1016.3 |
| 20260905214043 | 27 | 195 | 0.0 | 1.6 | 0.00 | 0.00 | 0.00 | 76 | 1016.3 |
| 20260905213538 | 27 | 180 | 0.0 | 0.0 | 0.00 | 0.00 | 0.00 | 81 | 1016.3 |
| 20260905213033 | 27 | 204 | 0.0 | 1.6 | 0.00 | 0.00 | 0.00 | 77 | 1016.3 |
| 20260905212528 | 26 | 221 | 1.6 | 1.6 | 0.00 | 0.00 | 0.00 | 81 | 1016.7 |
| 20260905212028 | 26 | 139 | 1.6 | 1.6 | 0.00 | 0.00 | 0.00 | 86 | 1016.3 |
| 20260905211523 | 26 | 174 | 0.0 | 1.6 | 0.00 | 0.00 | 0.00 | 86 | 1016.7 |
| 20260905211019 | 26 | 166 | 0.0 | 0.0 | 0.00 | 0.00 | 0.00 | 83 | 1016.7 |
| 20260905210515 | 26 | 161 | 1.6 | 1.6 | 0.00 | 0.00 | 0.00 | 82 | 1016.3 |
| 20260905210014 | 26 | 168 | 1.6 | 1.6 | 0.00 | 0.00 | 0.00 | 82 | 1016.3 |
| 20260905205509 | 27 | 168 | 1.6 | 3.2 | 0.00 | 0.00 | 0.00 | 78 | 1016.7 |
| 20260905205008 | 27 | 178 | 0.0 | 0.0 | 0.00 | 0.00 | 0.00 | 79 | 1016.7 |
| 20260905204503 | 26 | 184 | 0.0 | 0.0 | 0.00 | 0.00 | 0.00 | 82 | 1016.7 |
| 20260905204003 | 26 | 198 | 0.0 | 1.6 | 0.00 | 0.00 | 0.00 | 82 | 1016.7 |
| 20260905203458 | 26 | 187 | 0.0 | 0.0 | 0.00 | 0.00 | 0.00 | 83 | 1016.7 |
| 20260905202953 | 26 | 176 | 0.0 | 1.6 | 0.00 | 0.00 | 0.00 | 81 | 1017.0 |
| 20260905202448 | 27 | 210 | 1.6 | 1.6 | 0.00 | 0.00 | 0.00 | 77 | 1017.0 |
| 20260905201944 | 28 | 203 | 1.6 | 1.6 | 0.00 | 0.00 | 0.00 | 74 | 1017.0 |
| 20260905201439 | 28 | 200 | 1.6 | 1.6 | 0.00 | 0.00 | 0.00 | 75 | 1017.4 |
| 20260905200938 | 28 | 189 | 1.6 | 1.6 | 0.00 | 0.00 | 0.00 | 79 | 1017.0 |
| 20260905200435 | 27 | 233 | 0.0 | 1.6 | 0.00 | 0.00 | 0.00 | 78 | 1017.4 |
| 20260905195933 | 28 | 179 | 0.0 | 0.0 | 0.00 | 0.00 | 0.00 | 80 | 1017.4 |
| 20260905195428 | 28 | 202 | 1.6 | 1.6 | 0.00 | 0.00 | 0.00 | 78 | 1017.0 |
| 20260905194924 | 26 | 185 | 0.0 | 0.0 | 0.00 | 0.00 | 0.00 | 80 | 1017.0 |
| 20260905194423 | 26 | 63 | 3.2 | 3.2 | 0.00 | 0.00 | 0.00 | 79 | 1017.0 |
| 20260905193923 | 26 | 188 | 0.0 | 0.0 | 0.00 | 0.00 | 0.00 | 83 | 1017.0 |
| 20260905193418 | 26 | 150 | 1.6 | 1.6 | 0.00 | 0.00 | 0.00 | 82 | 1017.0 |
| 20260905192913 | 26 | 201 | 0.0 | 0.0 | 0.00 | 0.00 | 0.00 | 80 | 1017.4 |
| 20260905192409 | 26 | 232 | 1.6 | 1.6 | 0.00 | 0.00 | 0.00 | 84 | 1017.4 |
| 20260905191909 | 25 | 188 | 0.0 | 0.0 | 0.00 | 0.00 | 0.00 | 85 | 1017.0 |
| 20260905191408 | 25 | 171 | 0.0 | 0.0 | 0.00 | 0.00 | 0.00 | 85 | 1017.0 |
| 20260905190902 | 25 | 164 | 1.6 | 1.6 | 0.00 | 0.00 | 0.00 | 84 | 1017.4 |
| 20260905190354 | 25 | 121 | 0.0 | 1.6 | 0.00 | 0.00 | 0.00 | 83 | 1017.0 |
| 20260905185853 | 25 | 157 | 1.6 | 1.6 | 0.00 | 0.00 | 0.00 | 84 | 1017.0 |
| 20260905185349 | 25 | 184 | 0.0 | 0.0 | 0.00 | 0.00 | 0.00 | 86 | 1017.4 |
| 20260905184848 | 25 | 166 | 0.0 | 0.0 | 0.00 | 0.00 | 0.00 | 86 | 1017.0 |
| 20260905184347 | 25 | 170 | 0.0 | 0.0 | 0.00 | 0.00 | 0.00 | 83 | 1017.4 |
| 20260905183845 | 25 | 165 | 0.0 | 0.0 | 0.00 | 0.00 | 0.00 | 83 | 1017.0 |
| 20260905183341 | 25 | 171 | 0.0 | 0.0 | 0.00 | 0.00 | 0.00 | 84 | 1017.0 |
| 20260905182836 | 25 | 160 | 1.6 | 1.6 | 0.00 | 0.00 | 0.00 | 85 | 1016.7 |
| 20260905182335 | 25 | 184 | 0.0 | 0.0 | 0.00 | 0.00 | 0.00 | 85 | 1017.0 |
| 20260905181831 | 25 | 182 | 0.0 | 0.0 | 0.00 | 0.00 | 0.00 | 87 | 1017.0 |
| 20260905181330 | 25 | 184 | 0.0 | 1.6 | 0.00 | 0.00 | 0.00 | 87 | 1017.4 |
| 20260905180830 | 25 | 264 | 3.2 | 3.2 | 0.00 | 0.00 | 0.00 | 86 | 1017.7 |